Change the Weather History Date:

Tuesday, December 16, 2014

  Actual Average Record
Temperature  
Mean Temperature 46 °F 38 °F  
Max Temperature 55 °F 51 °F 70 °F (1980)
Min Temperature 36 °F 25 °F 4 °F (1967)
Degree Days  
Heating Degree Days 19    
Month to date heating degree days 306  
Since 1 July heating degree days 963  
Cooling Degree Days 0    
Month to date cooling degree days 0  
Year to date cooling degree days 1039  
Moisture  
Dew Point 27 °F    
Average Humidity 51    
Maximum Humidity 75    
Minimum Humidity 35    
Precipitation  
Precipitation 0.00 in 0.03 in 0.52 in (2010)
Month to date precipitation 1.81 0.48  
Year to date precipitation 12.03 13.49  
Sea Level Pressure  
Sea Level Pressure 29.96 in    
Wind  
Wind Speed 5 mph (SSE)    
Max Wind Speed 16 mph    
Max Gust Speed 22 mph    
Visibility 10 miles    
Events      
T = Trace of Precipitation, MM = Missing Value Source: NWS Daily Summary

Daily Weather History Graph

Daily Weather History Graph

Search for Another Location

Airport or City:

Trip Planner

Search our weather history database for the weather conditions in past years. The results will help you decide how hot, cold, wet, or windy it might be!

Date:

Astronomy

Dec. 16, 2014 Rise Set
Actual Time 7:30 AM MST 5:20 PM MST
Civil Twilight 7:02 AM MST 5:48 PM MST
Nautical Twilight 6:30 AM MST 6:20 PM MST
Astronomical Twilight 5:59 AM MST 6:51 PM MST
Moon 2:00 AM MST (12/16) 1:42 PM MST (12/16)
Length of Visible Light 10h 46m
Length of Day
9h 50m
Waning Crescent, 29% of the Moon is Illuminated
Dec 16
Waning Crescent
Dec 21
New
Dec 28
First Quarter
Jan 4
Full
Jan 13
Last Quarter

Hourly Weather History & Observations

Time (MST) Temp. Windchill Dew Point Humidity Pressure Visibility Wind Dir Wind Speed Gust Speed Precip Events Conditions
12:53 AM 43.0 °F 39.5 °F 23.0 °F 45% 29.96 in 10.0 mi SE 5.8 mph - N/A   Clear
1:53 AM 42.1 °F 40.2 °F 23.0 °F 47% 29.95 in 10.0 mi Variable 3.5 mph - N/A   Clear
2:53 AM 42.1 °F 37.7 °F 21.9 °F 45% 29.94 in 10.0 mi ESE 6.9 mph - N/A   Clear
3:53 AM 42.1 °F 38.4 °F 21.9 °F 45% 29.95 in 10.0 mi South 5.8 mph - N/A   Clear
4:53 AM 39.9 °F - 23.0 °F 51% 29.97 in 10.0 mi Calm Calm - N/A   Clear
5:53 AM 37.0 °F - 24.1 °F 59% 30.00 in 10.0 mi Calm Calm - N/A   Clear
6:53 AM 37.9 °F - 26.1 °F 62% 30.00 in 10.0 mi Calm Calm - N/A   Clear
7:53 AM 36.0 °F 32.1 °F 28.0 °F 73% 30.02 in 10.0 mi SW 4.6 mph - N/A   Mostly Cloudy
8:53 AM 39.0 °F - 27.0 °F 62% 30.02 in 10.0 mi Calm Calm - N/A   Overcast
9:45 AM 42.1 °F - 28.0 °F 58% 30.08 in 1.2 mi Calm Calm - N/A   Haze
9:53 AM 43.0 °F - 27.0 °F 53% 30.01 in 10.0 mi Calm Calm - N/A   Mostly Cloudy
10:53 AM 46.9 °F - 24.1 °F 41% 29.99 in 10.0 mi Variable 4.6 mph - N/A   Partly Cloudy
11:53 AM 50.0 °F - 26.1 °F 39% 29.96 in 10.0 mi South 4.6 mph - N/A   Mostly Cloudy
12:53 PM 53.1 °F - 27.0 °F 37% 29.91 in 10.0 mi SE 13.8 mph 21.9 mph N/A   Mostly Cloudy
1:53 PM 53.1 °F - 28.0 °F 38% 29.89 in 10.0 mi SSE 15.0 mph 19.6 mph N/A   Scattered Clouds
2:53 PM 51.1 °F - 28.9 °F 43% 29.90 in 10.0 mi SSW 9.2 mph - N/A   Mostly Cloudy
3:53 PM 51.1 °F - 28.9 °F 43% 29.91 in 10.0 mi SSE 6.9 mph - N/A   Mostly Cloudy
4:53 PM 48.0 °F - 27.0 °F 44% 29.92 in 10.0 mi SE 8.1 mph - N/A   Mostly Cloudy
5:53 PM 45.0 °F 43.5 °F 25.0 °F 46% 29.95 in 10.0 mi South 3.5 mph - N/A   Mostly Cloudy
6:53 PM 45.0 °F 41.2 °F 28.0 °F 52% 29.96 in 10.0 mi SSW 6.9 mph - N/A   Mostly Cloudy
7:53 PM 44.1 °F - 28.9 °F 55% 29.96 in 10.0 mi Calm Calm - N/A   Overcast
8:53 PM 43.0 °F - 28.9 °F 58% 29.96 in 10.0 mi Calm Calm - N/A   Overcast
9:53 PM 43.0 °F 40.3 °F 30.0 °F 60% 29.95 in 10.0 mi SSE 4.6 mph - N/A   Overcast
10:53 PM 43.0 °F - 28.9 °F 58% 29.94 in 10.0 mi Calm Calm - N/A   Overcast
11:53 PM 41.0 °F 39.0 °F 32.0 °F 70% 29.93 in 10.0 mi SE 3.5 mph - N/A   Overcast